| time (UTC) | temp C | wind direction | speed KPH | gust KPH | rain 1hr cm | rain 24hr cm | rain mn cm | humidity % | barometer mb |
| 20260504081541 | 13 | 203 | 12.9 | 0.0 | 0.00 | 0.00 | 0.00 | 46 | 993.8 |
| 20260504044602 | 15 | 204 | 9.7 | 0.0 | 0.00 | 0.00 | 0.00 | 40 | 998.1 |
| 20260504043058 | 15 | 198 | 9.7 | 0.0 | 0.00 | 0.00 | 0.00 | 40 | 998.6 |
| 20260504041552 | 15 | 246 | 8.0 | 0.0 | 0.00 | 0.00 | 0.00 | 42 | 999.0 |
| 20260504034557 | 15 | 217 | 6.4 | 0.0 | 0.00 | 0.00 | 0.00 | 43 | 999.7 |
| 20260504033114 | 15 | 205 | 8.0 | 0.0 | 0.00 | 0.00 | 0.00 | 42 | 1000.1 |
| 20260504031542 | 15 | 175 | 8.0 | 0.0 | 0.00 | 0.00 | 0.00 | 43 | 1000.4 |
| 20260504030045 | 15 | 188 | 6.4 | 0.0 | 0.00 | 0.00 | 0.00 | 43 | 1000.7 |
| 20260504024538 | 15 | 204 | 6.4 | 0.0 | 0.00 | 0.00 | 0.00 | 41 | 1001.1 |
| 20260504023047 | 16 | 195 | 6.4 | 0.0 | 0.00 | 0.00 | 0.00 | 39 | 1001.4 |
| 20260504021535 | 16 | 206 | 4.8 | 0.0 | 0.00 | 0.00 | 0.00 | 38 | 1001.5 |
| 20260504020036 | 16 | 213 | 4.8 | 0.0 | 0.00 | 0.00 | 0.00 | 37 | 1001.8 |
| 20260504014540 | 17 | 218 | 4.8 | 0.0 | 0.00 | 0.00 | 0.00 | 36 | 1001.9 |
| 20260504013032 | 17 | 244 | 4.8 | 0.0 | 0.00 | 0.00 | 0.00 | 35 | 1002.1 |
| 20260504011527 | 18 | 260 | 6.4 | 0.0 | 0.00 | 0.00 | 0.00 | 34 | 1002.2 |
| 20260504010028 | 18 | 227 | 8.0 | 0.0 | 0.00 | 0.00 | 0.00 | 34 | 1002.5 |
| 20260504004527 | 18 | 258 | 8.0 | 0.0 | 0.00 | 0.00 | 0.00 | 35 | 1002.6 |
| 20260504003030 | 18 | 223 | 9.7 | 0.0 | 0.00 | 0.00 | 0.00 | 35 | 1002.7 |
| 20260504001522 | 18 | 254 | 9.7 | 0.0 | 0.00 | 0.00 | 0.00 | 36 | 1002.9 |
| 20260504000021 | 19 | 268 | 9.7 | 0.0 | 0.00 | 0.00 | 0.00 | 34 | 1003.1 |
| 20260503234532 | 19 | 263 | 9.7 | 0.0 | 0.00 | 0.00 | 0.00 | 32 | 1003.3 |
| 20260503233018 | 19 | 250 | 9.7 | 0.0 | 0.00 | 0.00 | 0.00 | 35 | 1003.4 |
| 20260503231517 | 19 | 276 | 8.0 | 0.0 | 0.00 | 0.00 | 0.00 | 33 | 1003.5 |
| 20260503230015 | 19 | 212 | 6.4 | 0.0 | 0.00 | 0.00 | 0.00 | 33 | 1003.7 |
| 20260503224513 | 19 | 260 | 9.7 | 0.0 | 0.00 | 0.00 | 0.00 | 30 | 1003.8 |
| 20260503223013 | 19 | 281 | 8.0 | 0.0 | 0.00 | 0.00 | 0.00 | 34 | 1003.9 |
| 20260503221511 | 20 | 234 | 9.7 | 0.0 | 0.00 | 0.00 | 0.00 | 33 | 1004.0 |
| 20260503220010 | 19 | 227 | 8.0 | 0.0 | 0.00 | 0.00 | 0.00 | 31 | 1004.1 |
| 20260503214506 | 19 | 303 | 8.0 | 0.0 | 0.00 | 0.00 | 0.00 | 35 | 1004.4 |
| 20260503213006 | 18 | 275 | 11.3 | 0.0 | 0.00 | 0.00 | 0.00 | 31 | 1004.8 |
| 20260503211504 | 18 | 250 | 9.7 | 0.0 | 0.00 | 0.00 | 0.00 | 36 | 1004.9 |
| 20260503210005 | 18 | 266 | 8.0 | 0.0 | 0.00 | 0.00 | 0.00 | 33 | 1005.0 |
| 20260503204502 | 18 | 279 | 9.7 | 0.0 | 0.00 | 0.00 | 0.00 | 33 | 1005.3 |
| 20260503203106 | 18 | 279 | 9.7 | 0.0 | 0.00 | 0.00 | 0.00 | 31 | 1005.6 |
| 20260503201605 | 18 | 286 | 8.0 | 0.0 | 0.00 | 0.00 | 0.00 | 33 | 1005.8 |
| 20260503200101 | 18 | 243 | 8.0 | 0.0 | 0.00 | 0.00 | 0.00 | 34 | 1006.0 |
| 20260503194554 | 17 | 268 | 6.4 | 0.0 | 0.00 | 0.00 | 0.00 | 35 | 1006.2 |
| 20260503193056 | 17 | 284 | 9.7 | 0.0 | 0.00 | 0.00 | 0.00 | 35 | 1006.4 |
| 20260503191608 | 17 | 259 | 9.7 | 0.0 | 0.00 | 0.00 | 0.00 | 35 | 1006.6 |
| 20260503190052 | 17 | 252 | 9.7 | 0.0 | 0.00 | 0.00 | 0.00 | 35 | 1006.6 |
| 20260503184558 | 17 | 278 | 8.0 | 0.0 | 0.00 | 0.00 | 0.00 | 35 | 1006.9 |
| 20260503183109 | 17 | 262 | 8.0 | 0.0 | 0.00 | 0.00 | 0.00 | 35 | 1007.1 |
| 20260503181549 | 17 | 325 | 8.0 | 0.0 | 0.00 | 0.00 | 0.00 | 35 | 1007.3 |
| 20260503180048 | 16 | 296 | 8.0 | 0.0 | 0.00 | 0.00 | 0.00 | 36 | 1007.5 |
| 20260503174544 | 16 | 309 | 6.4 | 0.0 | 0.00 | 0.00 | 0.00 | 40 | 1007.6 |
| 20260503173109 | 16 | 273 | 8.0 | 0.0 | 0.00 | 0.00 | 0.00 | 35 | 1007.7 |
| 20260503171545 | 16 | 320 | 6.4 | 0.0 | 0.00 | 0.00 | 0.00 | 38 | 1007.9 |